Starlink 6277

operational
NORAD ID: 56399 Int'l Des: 2023-061 Owner: SPXS Country: US Constellation: starlink
LEOCIRCULAR

About Starlink 6277

Description loading...

Live Position

Loading 3D Globe...

Upcoming Passes

Altitude History

Altitude vs Time

uPlot chart will show altitude changes over time

Two-Line Element Set

1 56399U 23061AB 25353.13951649 .00000580 00000-0 58025-4 0 9997
2 56399 43.0038 262.5185 0001060 275.2377 84.8344 15.02538959144783
Epoch: Dec 19, 2025 • Age: 10 hours

Current Status

Altitude 561.8 km
Velocity 7.59 km/s
Sub-Earth Point 37.79°N, 94.52°E
Launch Date May 4, 2023
Age 2.6 years
Type internet

Technical Details

Classification Payload
Mass 305.00 kg
Dry Mass 290.00 kg
Total Mass 305.00 kg
Length 0.20 m
Diameter 2.80 m
Span 9.00 m
Shape Box + pan
Manufacturer SPXS
Bus Type Starlink
Phase Status In Orbit
Owner/State SPXS/US

Large Constellations

Loading constellations...